Retour au catalogue

INMARSAT 2-F2

ActifCommunicationsGEO
NORAD 21149·PAYLOAD·🇮🇲 IM

Lancé Mar 8, 1991 depuis Cape Canaveral Space Force Station

Loading…

TLE

FraisSource: Space-Track

Époque: Sep 14, 2026, 20:55 UTC

1 21149U 91018A   26257.87173384  .00000022  00000-0  00000-0 0  9993
2 21149  12.8537   8.6904 0004394 259.9905  96.8868  0.98721840 44339

Suivez INMARSAT 2-F2 en temps réel avec AllMySat

Download on the App Store